Weather History for Edinburgh Airport, United Kingdom

Change the Weather History Date:

Saturday, October 27, 2012

  Actual Average Record
Temperature  
Mean Temperature 37 °F -  
Max Temperature 46 °F 49 °F 69 °F (2005)
Min Temperature 28 °F 37 °F 28 °F (2012)
Degree Days  
Heating Degree Days 28    
Moisture  
Dew Point 31 °F    
Average Humidity 75    
Maximum Humidity 93    
Minimum Humidity 50    
Precipitation  
Precipitation 0.00 in 0.08 in - ()
Sea Level Pressure  
Sea Level Pressure 30.15 in    
Wind  
Wind Speed 7 mph ()    
Max Wind Speed 18 mph    
Max Gust Speed -    
Visibility 6.2 miles    
Events Rain    
Averages and records for this station are not official NWS values.
T = Trace of Precipitation, MM = Missing Value Source: Averaged Metar Reports

Daily Weather History Graph

Daily Weather History Graph

Search for Another Location

Airport:

Trip Planner

Search our weather history database for the weather conditions in past years. The results will help you decide how hot, cold, wet, or windy it might be!

Date:

Astronomy

Oct. 27, 2012 Rise Set
Actual Time 8:10 AM BST 5:43 PM BST
Civil Twilight 7:31 AM BST 6:22 PM BST
Nautical Twilight 6:47 AM BST 7:05 PM BST
Astronomical Twilight 6:04 AM BST 7:48 PM BST
Moon 4:35 PM BST (10/27) 5:33 AM BST (10/27)
Length of Visible Light 10h 50m
Length of Day
9h 32m
Waxing Gibbous, 95% of the Moon is Illuminated
Oct 27
Waxing Gibbous
Oct 29
Full
Nov 7
Last Quarter
Nov 13
New
Nov 20
First Quarter

Hourly Weather History & Observations

Time (BST) Temp. Windchill Dew Point Humidity Pressure Visibility Wind Dir Wind Speed Gust Speed Precip Events Conditions
12:20 AM 33.8 °F 30.8 °F 28.4 °F 81% 30.15 in - Variable 3.5 mph - N/A   Clear
12:50 AM 33.8 °F 30.8 °F 26.6 °F 75% 30.18 in - West 3.5 mph - N/A   Clear
1:20 AM 33.8 °F 29.6 °F 26.6 °F 75% 30.18 in - NNE 4.6 mph - N/A   Clear
1:50 AM 35.6 °F 29.2 °F 26.6 °F 70% 30.18 in - North 8.1 mph - N/A   Clear
2:20 AM 35.6 °F 31.7 °F 28.4 °F 75% 30.18 in - NW 4.6 mph - N/A   Clear
2:50 AM 35.6 °F 29.9 °F 28.4 °F 75% 30.18 in 6.2 mi NNW 6.9 mph - N/A   Unknown
3:20 AM 37.4 °F 32.1 °F 28.4 °F 70% 30.18 in 6.2 mi NW 6.9 mph - N/A   Unknown
3:50 AM 35.6 °F 31.7 °F 28.4 °F 75% 30.18 in 6.2 mi NW 4.6 mph - N/A   Unknown
4:20 AM 35.6 °F - 28.4 °F 75% 30.18 in - Variable 2.3 mph - N/A   Clear
4:50 AM 30.2 °F 23.4 °F 26.6 °F 86% 30.18 in - WSW 6.9 mph - N/A   Clear
5:20 AM 30.2 °F 22.6 °F 26.6 °F 86% 30.18 in - SW 8.1 mph - N/A   Clear
5:50 AM 32.0 °F 25.6 °F 26.6 °F 80% 30.18 in - West 6.9 mph - N/A   Clear
6:20 AM 28.4 °F 21.2 °F 24.8 °F 86% 30.18 in - WSW 6.9 mph - N/A   Clear
6:50 AM 30.2 °F 23.4 °F 26.6 °F 86% 30.21 in - WSW 6.9 mph - N/A   Clear
7:20 AM 32.0 °F 24.8 °F 26.6 °F 80% 30.21 in - West 8.1 mph - N/A   Clear
7:50 AM 30.2 °F 23.4 °F 26.6 °F 86% 30.21 in - WSW 6.9 mph - N/A   Clear
8:20 AM 32.0 °F 24.2 °F 26.6 °F 80% 30.21 in - WSW 9.2 mph - N/A   Clear
8:50 AM 32.0 °F 25.6 °F 26.6 °F 80% 30.21 in - WSW 6.9 mph - N/A   Clear
9:20 AM 32.0 °F 24.2 °F 26.6 °F 80% 30.21 in - WSW 9.2 mph - N/A   Clear
9:50 AM 33.8 °F 27.7 °F 28.4 °F 81% 30.24 in - WSW 6.9 mph - N/A   Clear
10:20 AM 37.4 °F 32.1 °F 30.2 °F 75% 30.24 in - WSW 6.9 mph - N/A   Clear
10:50 AM 39.2 °F 33.6 °F 30.2 °F 70% 30.24 in - WSW 8.1 mph - N/A   Clear
11:20 AM 41.0 °F 35.8 °F 32.0 °F 70% 30.24 in - SW 8.1 mph - N/A   Clear
11:50 AM 42.8 °F 38.6 °F 30.2 °F 61% 30.24 in - West 6.9 mph - N/A   Clear
12:20 PM 44.6 °F 40.2 °F 28.4 °F 53% 30.21 in - West 8.1 mph - N/A   Clear
12:50 PM 44.6 °F 39.7 °F 30.2 °F 57% 30.21 in - West 9.2 mph - N/A   Clear
1:20 PM 46.4 °F 41.5 °F 30.2 °F 53% 30.21 in - WSW 10.4 mph - N/A   Clear
1:50 PM 46.4 °F 41.9 °F 30.2 °F 53% 30.21 in - West 9.2 mph - N/A   Clear
2:20 PM 46.4 °F 42.4 °F 30.2 °F 53% 30.18 in - West 8.1 mph - N/A   Clear
2:50 PM 46.4 °F 42.4 °F 28.4 °F 50% 30.18 in - West 8.1 mph - N/A   Clear
3:20 PM 46.4 °F 41.9 °F 28.4 °F 50% 30.15 in - West 9.2 mph - N/A   Clear
3:50 PM 44.6 °F 40.2 °F 28.4 °F 53% 30.15 in 6.2 mi West 8.1 mph - N/A   Scattered Clouds
4:20 PM 44.6 °F 40.2 °F 28.4 °F 53% 30.15 in 6.2 mi West 8.1 mph - N/A   Mostly Cloudy
4:50 PM 44.6 °F 39.2 °F 30.2 °F 57% 30.12 in 6.2 mi West 10.4 mph - N/A   Mostly Cloudy
5:20 PM 42.8 °F 37.0 °F 32.0 °F 66% 30.12 in 6.2 mi WSW 10.4 mph - N/A   Partly Cloudy
5:50 PM 42.8 °F 35.4 °F 33.8 °F 70% 30.12 in 6.2 mi WSW 15.0 mph - N/A   Partly Cloudy
6:20 PM 41.0 °F 35.2 °F 35.6 °F 81% 30.09 in 6.2 mi SW 9.2 mph - N/A Rain Light Rain
6:50 PM 41.0 °F 33.9 °F 37.4 °F 87% 30.09 in 6.2 mi SW 12.7 mph - N/A Rain Light Rain
7:20 PM 41.0 °F 34.3 °F 37.4 °F 87% 30.09 in 6.2 mi SW 11.5 mph - N/A Rain Light Rain
7:50 PM 41.0 °F 33.5 °F 37.4 °F 87% 30.06 in 6.2 mi WSW 13.8 mph - N/A Rain Light Rain
8:20 PM 41.0 °F 32.2 °F 37.4 °F 87% 30.04 in 6.2 mi SW 18.4 mph - N/A Rain Light Rain
8:50 PM 41.0 °F 33.5 °F 37.4 °F 87% 30.04 in 6.2 mi SW 13.8 mph - N/A Rain Light Rain
9:20 PM 41.0 °F 33.9 °F 39.2 °F 93% 30.01 in 6.2 mi SW 12.7 mph - N/A Rain Light Rain
9:50 PM 41.0 °F 33.1 °F 39.2 °F 93% 29.98 in 6.2 mi SW 15.0 mph - N/A Rain Light Rain
10:20 PM 42.8 °F 35.4 °F 39.2 °F 87% 29.98 in 6.2 mi WSW 15.0 mph - N/A Rain Light Rain
10:50 PM 42.8 °F 35.4 °F 41.0 °F 93% 29.95 in 6.2 mi SW 15.0 mph - N/A Rain Light Rain
11:20 PM 42.8 °F 36.6 °F 41.0 °F 93% 29.95 in 6.2 mi SW 11.5 mph - N/A Rain Light Rain
11:50 PM 42.8 °F 36.6 °F 41.0 °F 93% 29.92 in 6.2 mi SW 11.5 mph - N/A   Mostly Cloudy